Regional Weather Roundup
Issued by NWS

Home | Current Version | Previous Version | Graphics & Text | Print | Product List | Glossary On
Versions: 1 2 3 4 5 6 7 8 9 10 11 12 13 14 15 16 17 18 19 20 21 22 23 24 25 26 27 28 29 30 31 32 33 34 35 36 37 38 39 40 41 42 43 44 45 46 47 48 49 50
000
ASUS43 KLOT 190358
RWRIL

ILLINOIS REGIONAL WEATHER ROUNDUP
NATIONAL WEATHER SERVICE CHICAGO/ROMEOVILLE IL
1100 PM CDT FRI APR 18 2014

NOTE: "FAIR" INDICATES FEW OR NO CLOUDS BELOW 12,000 FEET WITH NO
SIGNIFICANT WEATHER AND/OR OBSTRUCTIONS TO VISIBILITY.

* THESE STATIONS ARE NOT UNDER NWS QUALITY CONTROL. THEY ALSO MAY NOT
  REPORT WEATHER SUCH AS PRECIPITATION OR FOG.

ILZ001-002-007-009-015-016-024-190500-
NORTHWEST ILLINOIS

CITY           SKY/WX    TMP DP  RH WIND       PRES   REMARKS
MOLINE         CLEAR     50  32  50 E13       30.26F
$$

ILZ003-004-008-010-011-017-018-190500-
NORTH CENTRAL ILLINOIS

CITY           SKY/WX    TMP DP  RH WIND       PRES   REMARKS
ROCKFORD       NOT AVBL
$$

ILZ005-006-012>014-019>023-190500-
NORTHEAST ILLINOIS

CITY           SKY/WX    TMP DP  RH WIND       PRES   REMARKS
CHICAGO-OHARE  CLEAR     38  25  59 E8        30.37F WCI  32
CHICAGO-MIDWAY CLEAR     39  29  67 NE10      30.37F WCI  32
AURORA         CLEAR     38  28  67 E12       30.35S WCI  30
WAUKEGAN       CLEAR     35  27  72 N9        30.37F WCI  28
DUPAGE AIRPORT CLEAR     37  28  70 NE8       30.35F WCI  31
WHEELING       CLEAR     37  28  70 NE6       30.39S WCI  32
NORTHERLY ISL    N/A     38  30  73 N12         N/A  WCI  30
$$

LMZ740>746-190500-
SOUTHERN LAKE MICHIGAN

STATION/POSITION SKY/WX   TEMP    WIND        PRES    VSBY  WAVE
                          AIR SEA DIR/SP/G                  HT/PER
                          (F)     (DEG/KT/KT) (MB)    (MI)  (FT/S)
WAUKEGAN HARBOR            37      30/ 13/ 15 1029.8R
HARRISON CRIB              37      20/ 11/ 13   N/A
BURNHAM HARBOR             38      20/ 10/ 15   N/A
CALUMET HARBOR             38     360/  8/ 11 1029.2S
MICHIGAN CITY              38      20/ 12/ 15   N/A
$$

ILZ025>027-034>036-040-047-049-050-058-095>099-190500-
WEST-CENTRAL ILLINOIS

CITY           SKY/WX    TMP DP  RH WIND       PRES   REMARKS
$$

ILZ028>032-037-038-041>044-048-051>054-059>061-190500-
CENTRAL ILLINOIS

CITY           SKY/WX    TMP DP  RH WIND       PRES   REMARKS
PEORIA         NOT AVBL
SPRINGFIELD    CLEAR     50  30  46 E10       30.27R
TAYLORVILLE    NOT AVBL
$$

ILZ033-039-045-046-055>057-062-063-190500-
EAST-CENTRAL ILLINOIS

CITY           SKY/WX    TMP DP  RH WIND       PRES   REMARKS
CHAMPAIGN      CLEAR     49  37  63 NE17      30.31R
MATTOON        CLEAR     52  41  66 NE9       30.28R
$$

ILZ079-100>102-190500-
SOUTHWEST ILLINOIS

CITY           SKY/WX    TMP DP  RH WIND       PRES   REMARKS
CAHOKIA*       CLEAR     53  46  77 CALM      30.24S
$$

ILZ064>066-069>071-074>076-080>082-084>086-088>090-092>094-190500-
SOUTH-CENTRAL ILLINOIS

CITY           SKY/WX    TMP DP  RH WIND       PRES   REMARKS
CARBONDALE     CLEAR     54  46  74 CALM      30.23R
$$

ILZ067-068-072-073-078-083-087-091-190500-
SOUTHEAST ILLINOIS

CITY           SKY/WX    TMP DP  RH WIND       PRES   REMARKS
$$

ABBREVIATIONS USED IN REMARKS
   TC - TEMPERATURE IN CELSIUS
  WCI - WIND CHILL INDEX
   HX - HEAT INDEX
  VSB - VISIBILITY
$$




USA.gov is the U.S. government's official web portal to all federal, state and local government web resources and services.